Overview Statistics Trail Chart Weather Telemetry Raw packets
 

This is the latest recevied weather packets stored in our database for station/object KC3UTO. If no packets are shown the sender has not sent any weather packets the latest 10 day(s).

<< 105 106 107 108 109 110 111 >>
Time Temp. Humidity Pressure Rain* Wind** Luminosity Snow
1787769618 28.33° C 45% 1017.4 hPa 0 mm - 162 W/m² -
1787769315 28.89° C 45% 1017.3 hPa 0 mm - 821 W/m² -
1787769016 28.33° C 46% 1017.4 hPa 0 mm - 774 W/m² -
1787768711 28.89° C 46% 1017.5 hPa 0 mm - 793 W/m² -
1787768408 28.89° C 47% 1017.6 hPa 0 mm - 850 W/m² -
1787768103 28.33° C 48% 1017.5 hPa 0 mm - 856 W/m² -
1787767798 27.78° C 48% 1017.8 hPa 0 mm - 877 W/m² -
1787767494 27.78° C 48% 1017.8 hPa 0 mm - 884 W/m² -
1787767191 27.22° C 50% 1018 hPa 0 mm - 947 W/m² -
1787766890 28.33° C 50% 1017.9 hPa 0 mm - 129 W/m² -
1787766585 28.33° C 45% 1017.9 hPa 0 mm - 924 W/m² -
1787766284 28.89° C 47% 1017.9 hPa 0 mm - 719 W/m² -
1787765979 27.78° C 48% 1017.9 hPa 0 mm - 886 W/m² -
1787765677 27.78° C 48% 1018.2 hPa 0 mm - 924 W/m² -
1787765372 27.78° C 50% 1018.1 hPa 0 mm - 953 W/m² -
1787765071 27.78° C 48% 1018.3 hPa 0 mm - 970 W/m² -
1787764766 27.22° C 51% 1018.2 hPa 0 mm - 926 W/m² -
1787764461 27.78° C 48% 1018.4 hPa 0 mm - 945 W/m² -
1787764157 27.22° C 51% 1018.3 hPa 0 mm - 906 W/m² -
1787763853 26.67° C 52% 1018.4 hPa 0 mm - 898 W/m² -
1787763547 26.67° C 53% 1018.3 hPa 0 mm - 174 W/m² -
1787763243 26.67° C 51% 1018.4 hPa 0 mm - 256 W/m² -
1787762938 27.22° C 50% 1018.3 hPa 0 mm - 141 W/m² -
1787762637 26.67° C 53% 1018.5 hPa 0 mm - 87 W/m² -
1787762335 27.22° C 50% 1018.4 hPa 0 mm - 99 W/m² -

* Rain latest hour (hover to see other rain measurements)
** Current wind speed in m/s (hover to see current wind gust speed)